IPRIOL5 Weather Reports


time (UTC)temp
C
wind
direction
speed
KPH
gust
KPH
rain 1hr
cm
rain 24hr
cm
rain mn
cm
humidity
%
barometer
mb
20260906093023 32 179 0.0 0.0 0.00 0.00 0.00 44 1019.7
20260906091518 32 179 0.0 0.0 0.00 0.00 0.00 44 1019.8
20260906090023 32 179 0.0 0.0 0.00 0.00 0.00 44 1019.8
20260906084504 31 179 0.0 0.0 0.00 0.00 0.00 44 1019.8
20260906083006 31 179 0.0 0.0 0.00 0.00 0.00 44 1019.7
20260906081513 31 179 0.0 0.0 0.00 0.00 0.00 45 1019.6
20260906080013 30 179 0.0 0.0 0.00 0.00 0.00 45 1019.5
20260906074517 30 179 0.0 0.0 0.00 0.00 0.00 47 1019.3
20260906073003 29 179 0.0 0.0 0.00 0.00 0.00 49 1019.1
20260906071509 29 179 0.0 0.0 0.00 0.00 0.00 51 1019.1
20260906070017 28 179 0.0 0.0 0.00 0.00 0.00 51 1018.9
20260906064516 28 179 0.0 0.0 0.00 0.00 0.00 51 1018.8
20260906063024 28 179 0.0 0.0 0.00 0.00 0.00 52 1018.8
20260906061506 27 179 0.0 0.0 0.00 0.00 0.00 52 1018.7
20260906060011 27 179 0.0 0.0 0.00 0.00 0.00 52 1018.5
20260906054515 27 179 0.0 0.0 0.00 0.00 0.00 52 1018.4
20260906053026 27 179 0.0 0.0 0.00 0.00 0.00 52 1018.4
20260906051523 27 179 0.0 0.0 0.00 0.00 0.00 52 1018.4
20260906050009 27 179 0.0 0.0 0.00 0.00 0.00 52 1018.3
20260906044512 27 179 0.0 0.0 0.00 0.00 0.00 53 1018.3
20260906043020 27 179 0.0 0.0 0.00 0.00 0.00 54 1018.1
20260906041523 27 179 0.0 0.0 0.00 0.00 0.00 55 1018.0
20260906040032 27 179 0.0 0.0 0.00 0.00 0.00 55 1017.9
20260906034510 27 179 0.0 0.0 0.00 0.00 0.00 55 1017.8
20260906033010 28 179 0.0 0.0 0.00 0.00 0.00 55 1017.8
20260906031505 28 179 0.0 0.0 0.00 0.00 0.00 55 1017.9
20260906030009 28 179 0.0 0.0 0.00 0.00 0.00 56 1018.0
20260906024519 28 179 0.0 0.0 0.00 0.00 0.00 56 1018.0
20260906023019 28 179 0.0 0.0 0.00 0.00 0.00 56 1018.1
20260906021517 28 179 0.0 0.0 0.00 0.00 0.00 57 1018.1
20260906020004 28 179 0.0 0.0 0.00 0.00 0.00 57 1018.1
20260906014509 28 179 0.0 0.0 0.00 0.00 0.00 57 1018.2
20260906013010 29 179 0.0 0.0 0.00 0.00 0.00 58 1018.3
20260906011510 29 179 0.0 0.0 0.00 0.00 0.00 58 1018.4
20260906010020 29 179 0.0 0.0 0.00 0.00 0.00 58 1018.5
20260906004504 30 179 0.0 0.0 0.00 0.00 0.00 57 1018.5
20260906003005 30 179 0.0 0.0 0.00 0.00 0.00 57 1018.5
20260906001512 30 179 0.0 0.0 0.00 0.00 0.00 56 1018.5
20260906000014 30 179 0.0 0.0 0.00 0.00 0.00 55 1018.6
20260905234519 30 179 0.0 0.0 0.00 0.00 0.00 54 1018.8
20260905233004 30 179 0.0 0.0 0.00 0.00 0.00 53 1018.8
20260905231506 30 179 0.0 0.0 0.00 0.00 0.00 51 1018.9
20260905230009 30 179 0.0 0.0 0.00 0.00 0.00 50 1018.9
20260905224513 30 179 0.0 0.0 0.00 0.00 0.00 49 1019.0
20260905223023 30 179 0.0 0.0 0.00 0.00 0.00 47 1018.9
20260905221503 30 179 0.0 0.0 0.00 0.00 0.00 46 1018.9
20260905220007 30 179 0.0 0.0 0.00 0.00 0.00 44 1018.9
20260905214510 31 179 0.0 0.0 0.00 0.00 0.00 44 1018.8
20260905213014 31 179 0.0 0.0 0.00 0.00 0.00 44 1018.7
20260905211534 31 179 0.0 0.0 0.00 0.00 0.00 44 1018.7
20260905210029 31 179 0.0 0.0 0.00 0.00 0.00 43 1018.6
20260905204511 31 179 0.0 0.0 0.00 0.00 0.00 43 1018.6
20260905203013 31 179 0.0 0.0 0.00 0.00 0.00 42 1018.6
20260905201519 32 179 0.0 0.0 0.00 0.00 0.00 42 1018.6
20260905200030 32 179 0.0 0.0 0.00 0.00 0.00 42 1018.7
20260905194530 32 179 0.0 0.0 0.00 0.00 0.00 42 1018.8
20260905193007 32 179 0.0 0.0 0.00 0.00 0.00 42 1018.7
20260905191515 32 179 0.0 0.0 0.00 0.00 0.00 43 1018.7
20260905190023 33 179 0.0 0.0 0.00 0.00 0.00 43 1018.5
20260905184539 33 179 0.0 0.0 0.00 0.00 0.00 43 1018.3
20260905183032 33 179 0.0 0.0 0.00 0.00 0.00 42 1018.2
20260905181514 33 179 0.0 0.0 0.00 0.00 0.00 42 1018.1
20260905180004 34 179 0.0 0.0 0.00 0.00 0.00 42 1018.0
20260905174503 34 179 0.0 0.0 0.00 0.00 0.00 41 1018.0
20260905173009 35 179 0.0 0.0 0.00 0.00 0.00 40 1017.8
20260905171507 35 179 0.0 0.0 0.00 0.00 0.00 39 1017.6
20260905170011 35 179 0.0 0.0 0.00 0.00 0.00 38 1017.6
20260905164520 35 179 0.0 0.0 0.00 0.00 0.00 37 1017.6
20260905163004 36 179 0.0 0.0 0.00 0.00 0.00 37 1017.7
20260905161503 36 179 0.0 0.0 0.00 0.00 0.00 37 1017.6
20260905160010 36 179 0.0 0.0 0.00 0.00 0.00 36 1017.6
20260905154510 37 179 0.0 0.0 0.00 0.00 0.00 36 1017.7
20260905153025 37 179 0.0 0.0 0.00 0.00 0.00 35 1017.7
20260905151505 38 179 0.0 0.0 0.00 0.00 0.00 36 1017.7
20260905150003 39 179 0.0 0.0 0.00 0.00 0.00 36 1017.6
20260905144516 38 179 0.0 0.0 0.00 0.00 0.00 36 1017.6
20260905143023 37 179 0.0 0.0 0.00 0.00 0.00 39 1017.6
20260905141533 37 179 0.0 0.0 0.00 0.00 0.00 39 1017.7
20260905140006 37 179 0.0 0.0 0.00 0.00 0.00 39 1017.8
20260905134508 37 179 0.0 0.0 0.00 0.00 0.00 40 1017.9
20260905133014 36 179 0.0 0.0 0.00 0.00 0.00 40 1018.0
20260905131517 36 179 0.0 0.0 0.00 0.00 0.00 41 1018.1
20260905130024 36 179 0.0 0.0 0.00 0.00 0.00 43 1018.3
20260905124506 36 179 0.0 0.0 0.00 0.00 0.00 44 1018.6
20260905123019 36 179 0.0 0.0 0.00 0.00 0.00 44 1018.7
20260905121512 36 179 0.0 0.0 0.00 0.00 0.00 44 1018.9
20260905120003 35 179 0.0 0.0 0.00 0.00 0.00 44 1019.1
20260905114504 35 179 0.0 0.0 0.00 0.00 0.00 44 1019.2
20260905113005 35 179 0.0 0.0 0.00 0.00 0.00 44 1019.3
20260905111511 35 179 0.0 0.0 0.00 0.00 0.00 44 1019.2
20260905110012 35 179 0.0 0.0 0.00 0.00 0.00 45 1019.3
20260905104522 35 179 0.0 0.0 0.00 0.00 0.00 45 1019.3
20260905103004 35 179 0.0 0.0 0.00 0.00 0.00 47 1019.3
20260905101505 33 179 0.0 0.0 0.00 0.00 0.00 49 1019.4
20260905100018 33 179 0.0 0.0 0.00 0.00 0.00 49 1019.4
20260905094517 33 179 0.0 0.0 0.00 0.00 0.00 49 1019.5